Location: Unspecified
(50.1700°N, 6.8600°E)
Time: 15:29:08
(UTC+00:00)

PAYLOAD B - Pass Details

Date: 24 January 2019
Orbit: 850 x 871 km, 99.1° (Epoch: 17 October)

Event Time Altitude Azimuth Distance (km) Brightness Sun altitude
Rises 04:47:18 0° 14° (NNE) 3,470 7.5 -23.8°
Reaches altitude 10° 04:49:42 10° 13° (NNE) 2,526 6.8 -23.4°
Maximum altitude 04:55:19 76° 289° (WNW) 895 4.1 -22.5°
Drops below altitude 10° 05:00:51 10° 204° (SSW) 2,496 6.4 -21.6°
Sets 05:03:13 0° 203° (SSW) 3,425 7.2 -21.2°
